GW2765 Weather Reports


Display with metric or nautical units.
time (UTC)temp
F
wind
direction
speed
MPH
gust
MPH
rain 1hr
in
rain 24hr
in
rain mn
in
humidity
%
barometer
mb
20260505235157 79 267 1.0 5.0 0.00 0.00 0.00 27 1010.0
20260505234430 79 355 2.0 14.0 0.00 0.00 0.00 28 1009.9
20260505233929 79 62 3.0 14.0 0.00 0.00 0.00 27 1010.0
20260505233429 79 294 3.0 10.0 0.00 0.00 0.00 28 1009.9
20260505232929 78 340 4.0 10.0 0.00 0.00 0.00 28 1010.0
20260505232430 79 1 2.0 10.0 0.00 0.00 0.00 27 1010.1
20260505231929 80 263 3.0 10.0 0.00 0.00 0.00 27 1010.1
20260505231429 80 293 3.0 10.0 0.00 0.00 0.00 27 1010.1
20260505230929 79 224 4.0 11.0 0.00 0.00 0.00 27 1010.0
20260505230429 79 317 5.0 11.0 0.00 0.00 0.00 27 1010.2
20260505230200 79 247 4.0 11.0 0.00 0.00 0.00 28 1010.2
20260505225430 79 246 3.0 10.0 0.00 0.00 0.00 28 1010.3
20260505224929 79 53 2.0 7.0 0.00 0.00 0.00 27 1010.3
20260505224430 80 342 2.0 8.0 0.00 0.00 0.00 27 1010.3
20260505223929 80 227 2.0 10.0 0.00 0.00 0.00 26 1010.3
20260505223657 80 240 2.0 10.0 0.00 0.00 0.00 26 1010.4
20260505222929 80 50 3.0 10.0 0.00 0.00 0.00 27 1010.3
20260505222708 80 241 2.0 10.0 0.00 0.00 0.00 26 1010.5
20260505222155 81 229 1.0 4.0 0.00 0.00 0.00 26 1010.5
20260505221655 79 148 1.0 6.0 0.00 0.00 0.00 28 1010.7
20260505220929 78 347 3.0 7.0 0.00 0.00 0.00 28 1010.6
20260505220429 78 354 3.0 7.0 0.00 0.00 0.00 29 1010.8
20260505215929 78 334 3.0 9.0 0.00 0.00 0.00 29 1011.0
20260505215429 78 329 2.0 9.0 0.00 0.00 0.00 28 1011.1
20260505214929 78 291 2.0 6.0 0.00 0.00 0.00 28 1011.0
20260505214429 78 271 3.0 9.0 0.00 0.00 0.00 28 1011.2
20260505213929 78 338 3.0 9.0 0.00 0.00 0.00 28 1011.3
20260505212929 78 261 4.0 8.0 0.00 0.00 0.00 32 1011.4
20260505212430 78 312 2.0 6.0 0.00 0.00 0.00 32 1011.6
20260505211929 78 323 1.0 4.0 0.00 0.00 0.00 32 1011.6
20260505211657 78 157 1.0 3.0 0.00 0.00 0.00 29 1011.5
20260505210930 78 81 1.0 4.0 0.00 0.00 0.00 29 1011.7
20260505210429 78 265 1.0 5.0 0.00 0.00 0.00 31 1011.7
20260505205929 76 26 2.0 7.0 0.00 0.00 0.00 32 1011.8
20260505205429 77 228 2.0 8.0 0.00 0.00 0.00 31 1011.9
20260505204930 77 269 3.0 8.0 0.00 0.00 0.00 33 1011.7
20260505204431 77 260 3.0 8.0 0.00 0.00 0.00 34 1011.8
20260505204204 77 46 2.0 7.0 0.00 0.00 0.00 33 1011.8
20260505203429 77 229 1.0 7.0 0.00 0.00 0.00 32 1011.9
20260505202929 77 323 0.0 3.0 0.00 0.00 0.00 33 1011.9
20260505202431 78 261 1.0 5.0 0.00 0.00 0.00 32 1011.9
20260505201929 76 263 2.0 8.0 0.00 0.00 0.00 33 1012.0
20260505201428 76 340 2.0 8.0 0.00 0.00 0.00 36 1012.0
20260505200929 75 41 2.0 8.0 0.00 0.00 0.00 37 1012.0
20260505200702 74 335 2.0 8.0 0.00 0.00 0.00 37 1012.0
20260505195925 74 63 2.0 8.0 0.00 0.00 0.00 38 1012.1
20260505195651 75 346 2.0 6.0 0.00 0.00 0.00 38 1012.2
20260505194925 76 349 2.0 6.0 0.00 0.00 0.00 36 1012.1
20260505194425 77 79 2.0 6.0 0.00 0.00 0.00 36 1012.2
20260505194155 78 312 2.0 7.0 0.00 0.00 0.00 38 1012.2
20260505193423 78 276 3.0 8.0 0.00 0.00 0.00 36 1012.3
20260505192923 77 160 3.0 8.0 0.00 0.00 0.00 36 1012.3
20260505192423 76 204 1.0 7.0 0.00 0.00 0.00 37 1012.4
20260505191923 76 55 1.0 4.0 0.00 0.00 0.00 39 1012.4
20260505191423 75 131 1.0 5.0 0.00 0.00 0.00 38 1012.5
20260505190918 74 98 1.0 5.0 0.00 0.00 0.00 39 1012.6
20260505190418 74 106 2.0 6.0 0.00 0.00 0.00 40 1012.5
20260505185919 73 179 2.0 6.0 0.00 0.00 0.00 40 1012.6
20260505185419 73 133 1.0 4.0 0.00 0.00 0.00 41 1012.7
20260505185150 73 84 1.0 4.0 0.00 0.00 0.00 40 1012.7
20260505184420 74 343 1.0 5.0 0.00 0.00 0.00 39 1012.8
20260505183919 75 251 2.0 5.0 0.00 0.00 0.00 40 1012.7
20260505183418 74 29 2.0 6.0 0.00 0.00 0.00 40 1012.7
20260505182921 74 314 2.0 6.0 0.00 0.00 0.00 40 1012.7
20260505182416 74 35 1.0 6.0 0.00 0.00 0.00 40 1012.7
20260505181915 75 178 2.0 6.0 0.00 0.00 0.00 40 1012.7
20260505181414 75 106 2.0 6.0 0.00 0.00 0.00 39 1012.7
20260505180916 76 234 1.0 7.0 0.00 0.00 0.00 39 1012.7
20260505180416 75 186 2.0 7.0 0.00 0.00 0.00 41 1012.7
20260505175915 74 146 2.0 6.0 0.00 0.00 0.00 41 1012.7
20260505175645 73 160 1.0 6.0 0.00 0.00 0.00 41 1012.7
20260505174916 73 101 1.0 6.0 0.00 0.00 0.00 42 1012.6
20260505174415 74 41 1.0 4.0 0.00 0.00 0.00 42 1012.6
20260505173910 73 92 1.0 4.0 0.00 0.00 0.00 43 1012.5
20260505173640 73 63 1.0 5.0 0.00 0.00 0.00 43 1012.5
20260505172911 72 283 1.0 5.0 0.00 0.00 0.00 43 1012.6
20260505172410 72 352 1.0 4.0 0.00 0.00 0.00 44 1012.5
20260505171911 72 287 1.0 7.0 0.00 0.00 0.00 44 1012.5
20260505171412 71 52 2.0 7.0 0.00 0.00 0.00 44 1012.5
20260505170911 72 336 2.0 6.0 0.00 0.00 0.00 44 1012.5
20260505170410 73 310 0.0 4.0 0.00 0.00 0.00 43 1012.6
20260505165916 73 57 0.0 3.0 0.00 0.00 0.00 43 1012.5
20260505165408 71 119 1.0 4.0 0.00 0.00 0.00 46 1012.4
20260505165135 71 330 1.0 6.0 0.00 0.00 0.00 45 1012.5
20260505164631 71 51 1.0 6.0 0.00 0.00 0.00 46 1012.5
20260505163907 71 346 1.0 5.0 0.00 0.00 0.00 47 1012.4
20260505163408 70 226 1.0 5.0 0.00 0.00 0.00 46 1012.3
20260505162907 71 82 1.0 4.0 0.00 0.00 0.00 46 1012.3
20260505162406 71 203 0.0 3.0 0.00 0.00 0.00 45 1012.3
20260505162137 71 33 0.0 3.0 0.00 0.00 0.00 46 1012.4
20260505160903 70 193 0.0 3.0 0.00 0.00 0.00 48 1012.2
20260505160403 69 245 1.0 3.0 0.00 0.00 0.00 48 1012.1
20260505152901 68 244 0.0 3.0 0.00 0.00 0.00 51 1012.1
20260505151353 69 94 0.0 1.0 0.00 0.00 0.00 50 1012.0
20260505151124 68 225 0.0 1.0 0.00 0.00 0.00 52 1012.1
20260505150626 68 82 0.0 2.0 0.00 0.00 0.00 53 1012.1
20260505140343 62 148 0.0 1.0 0.00 0.00 0.00 61 1011.9
20260505124829 58 177 0.0 1.0 0.00 0.00 0.00 68 1011.3
20260505124329 58 201 0.0 0.0 0.00 0.00 0.00 68 1011.3
20260505123830 58 201 0.0 0.0 0.00 0.00 0.00 67 1011.2
20260505123331 58 201 0.0 0.0 0.00 0.00 0.00 67 1011.3
20260505123056 58 201 0.0 0.0 0.00 0.00 0.00 67 1011.4
20260505122331 58 201 0.0 0.0 0.00 0.00 0.00 66 1011.3
20260505121830 59 201 0.0 0.0 0.00 0.00 0.00 65 1011.4
20260505121329 59 201 0.0 0.0 0.00 0.00 0.00 64 1011.4
20260505120829 59 201 0.0 1.0 0.00 0.00 0.00 64 1011.4
20260505120329 59 250 0.0 1.0 0.00 0.00 0.00 65 1011.3
20260505115829 59 127 0.0 1.0 0.00 0.00 0.00 64 1011.3
20260505115330 59 106 0.0 2.0 0.00 0.00 0.00 64 1011.3
20260505114831 59 99 1.0 3.0 0.00 0.00 0.00 65 1011.2
20260505114329 59 130 1.0 3.0 0.00 0.00 0.00 65 1011.3
20260505113830 59 212 0.0 2.0 0.00 0.00 0.00 65 1011.3
20260505113329 59 198 0.0 0.0 0.00 0.00 0.00 65 1011.3
20260505112829 59 175 0.0 0.0 0.00 0.00 0.00 65 1011.4
20260505112328 59 175 0.0 0.0 0.00 0.00 0.00 65 1011.4
20260505111610 60 153 0.0 1.0 0.00 0.00 0.00 64 1011.4
20260505110828 60 153 0.0 2.0 0.00 0.00 0.00 63 1011.6
20260505110554 60 115 0.0 2.0 0.00 0.00 0.00 63 1011.6
20260505101808 60 176 0.0 1.0 0.00 0.00 0.00 64 1011.3
20260505101308 60 154 0.0 0.0 0.00 0.00 0.00 63 1011.3
20260505100809 60 154 0.0 0.0 0.00 0.00 0.00 63 1011.3
20260505100307 60 154 0.0 0.0 0.00 0.00 0.00 63 1011.3
20260505095805 60 62 0.0 0.0 0.00 0.00 0.00 62 1011.3
20260505095305 60 61 0.0 0.0 0.00 0.00 0.00 61 1011.3
20260505094803 61 62 0.0 1.0 0.00 0.00 0.00 61 1011.3
20260505094311 60 54 0.0 1.0 0.00 0.00 0.00 61 1011.3
20260505093803 60 96 0.0 1.0 0.00 0.00 0.00 61 1011.5
20260505093300 60 113 0.0 1.0 0.00 0.00 0.00 61 1011.4
20260505092803 61 113 0.0 1.0 0.00 0.00 0.00 61 1011.5
20260505092300 61 117 0.0 4.0 0.00 0.00 0.00 60 1011.5
20260505091802 61 118 0.0 4.0 0.00 0.00 0.00 60 1011.5
20260505091300 61 112 0.0 3.0 0.00 0.00 0.00 60 1011.4
20260505091028 61 111 0.0 3.0 0.00 0.00 0.00 60 1011.4
20260505090301 61 165 0.0 3.0 0.00 0.00 0.00 60 1011.3
20260505085802 61 153 1.0 3.0 0.00 0.00 0.00 60 1011.4
20260505085301 62 167 1.0 2.0 0.00 0.00 0.00 60 1011.4
20260505084803 62 179 1.0 2.0 0.00 0.00 0.00 60 1011.4
20260505084302 62 170 0.0 1.0 0.00 0.00 0.00 59 1011.5
20260505083801 62 198 0.0 1.0 0.00 0.00 0.00 59 1011.6
20260505083302 62 155 0.0 3.0 0.00 0.00 0.00 58 1011.6
20260505082801 62 143 0.0 3.0 0.00 0.00 0.00 58 1011.5
20260505082304 62 147 0.0 2.0 0.00 0.00 0.00 58 1011.6
20260505081801 62 174 0.0 2.0 0.00 0.00 0.00 57 1011.7
20260505081301 62 167 0.0 1.0 0.00 0.00 0.00 57 1011.7
20260505080803 62 113 0.0 2.0 0.00 0.00 0.00 56 1011.6
20260505080302 63 150 1.0 2.0 0.00 0.00 0.00 56 1011.5
20260505075801 63 180 1.0 2.0 0.00 0.00 0.00 56 1011.6
20260505075304 63 212 1.0 2.0 0.00 0.00 0.00 55 1011.6
20260505074802 63 224 1.0 2.0 0.00 0.00 0.00 55 1011.5
20260505074523 64 184 0.0 2.0 0.00 0.00 0.00 54 1011.5
20260505073801 64 157 0.0 2.0 0.00 0.00 0.00 53 1011.5
20260505073300 64 159 0.0 1.0 0.00 0.00 0.00 52 1011.5
20260505072802 64 134 1.0 4.0 0.00 0.00 0.00 52 1011.5
20260505072532 64 84 1.0 4.0 0.00 0.00 0.00 52 1011.4
20260505071802 64 125 1.0 3.0 0.00 0.00 0.00 51 1011.5
20260505071300 65 131 1.0 3.0 0.00 0.00 0.00 51 1011.6
20260505070801 64 105 0.0 3.0 0.00 0.00 0.00 51 1011.6
20260505070305 65 103 1.0 3.0 0.00 0.00 0.00 50 1011.6
20260505065802 65 121 1.0 3.0 0.00 0.00 0.00 50 1011.4
20260505065303 65 96 0.0 4.0 0.00 0.00 0.00 49 1011.5
20260505064804 65 77 1.0 4.0 0.00 0.00 0.00 49 1011.4
20260505064541 65 84 1.0 6.0 0.00 0.00 0.00 49 1011.5
20260505063302 66 87 1.0 4.0 0.00 0.00 0.00 48 1011.4
20260505063029 66 64 1.0 4.0 0.00 0.00 0.00 48 1011.4
20260505062301 65 60 0.0 4.0 0.00 0.00 0.00 48 1011.4
20260505061801 65 60 0.0 3.0 0.00 0.00 0.00 49 1011.5
20260505061301 65 77 0.0 4.0 0.00 0.00 0.00 50 1011.5
20260505060802 65 76 0.0 4.0 0.00 0.00 0.00 50 1011.4
20260505060303 65 148 0.0 2.0 0.00 0.00 0.00 49 1011.6
20260505055802 66 77 0.0 2.0 0.00 0.00 0.00 49 1011.6
20260505055304 66 84 1.0 4.0 0.00 0.00 0.00 49 1011.6
20260505054802 65 55 1.0 4.0 0.00 0.00 0.00 50 1011.6
20260505054531 66 5 0.0 2.0 0.00 0.00 0.00 50 1011.7
20260505053817 66 61 0.0 2.0 0.00 0.00 0.00 49 1011.6
20260505053302 66 98 0.0 2.0 0.00 0.00 0.00 49 1011.7
20260505052801 66 80 0.0 3.0 0.00 0.00 0.00 49 1011.7
20260505052304 67 80 1.0 3.0 0.00 0.00 0.00 49 1011.7
20260505051801 67 65 1.0 2.0 0.00 0.00 0.00 49 1011.6
20260505051301 67 76 0.0 2.0 0.00 0.00 0.00 49 1011.8
20260505050800 67 109 0.0 1.0 0.00 0.00 0.00 49 1012.0
20260505050257 67 94 0.0 2.0 0.00 0.00 0.00 48 1011.8
20260505041745 68 34 0.0 2.0 0.00 0.00 0.00 45 1011.6
20260505041243 69 33 0.0 2.0 0.00 0.00 0.00 44 1011.5
20260505040743 69 12 1.0 6.0 0.00 0.00 0.00 42 1011.5
20260505040245 70 28 1.0 6.0 0.00 0.00 0.00 41 1011.4
20260505035741 70 333 2.0 7.0 0.00 0.00 0.00 40 1011.4
20260505035241 70 300 2.0 7.0 0.00 0.00 0.00 39 1011.4
20260505034741 70 294 2.0 7.0 0.00 0.00 0.00 38 1011.4
20260505033742 71 243 4.0 11.0 0.00 0.00 0.00 37 1011.1
20260505033242 71 326 6.0 11.0 0.00 0.00 0.00 37 1011.0
20260505033000 71 270 6.0 14.0 0.00 0.00 0.00 37 1010.9
20260505032232 71 269 5.0 14.0 0.00 0.00 0.00 37 1010.8
20260505031731 71 304 6.0 16.0 0.00 0.00 0.00 38 1010.7
20260505031232 71 232 9.0 18.0 0.00 0.00 0.00 38 1010.7
20260505030730 71 251 9.0 18.0 0.00 0.00 0.00 38 1010.6
20260505030229 71 262 9.0 21.0 0.00 0.00 0.00 38 1010.7
20260505025729 71 250 10.0 21.0 0.00 0.00 0.00 38 1010.6
20260505025457 71 252 9.0 19.0 0.00 0.00 0.00 39 1010.6
20260505024954 71 300 10.0 20.0 0.00 0.00 0.00 39 1010.5
20260505024229 71 273 9.0 20.0 0.00 0.00 0.00 39 1010.6
20260505023731 72 248 8.0 19.0 0.00 0.00 0.00 40 1010.5
20260505023229 72 285 8.0 15.0 0.00 0.00 0.00 40 1010.5
20260505022729 72 290 9.0 17.0 0.00 0.00 0.00 39 1010.4
20260505022458 73 264 9.0 18.0 0.00 0.00 0.00 37 1010.4
20260505022002 73 193 8.0 18.0 0.00 0.00 0.00 37 1010.6
20260505021456 73 245 10.0 21.0 0.00 0.00 0.00 36 1010.4
20260505020732 73 219 13.0 22.0 0.00 0.00 0.00 36 1010.6
20260505020511 73 253 14.0 22.0 0.00 0.00 0.00 35 1010.5
20260505015954 74 259 11.0 22.0 0.00 0.00 0.00 34 1010.5
20260505015230 74 329 8.0 20.0 0.00 0.00 0.00 33 1010.5
20260505014729 75 249 10.0 20.0 0.00 0.00 0.00 32 1010.4
20260505014229 75 236 12.0 24.0 0.00 0.00 0.00 32 1010.3
20260505013730 75 240 10.0 24.0 0.00 0.00 0.00 32 1010.4
20260505013229 76 286 8.0 18.0 0.00 0.00 0.00 31 1010.5
20260505012729 76 296 7.0 18.0 0.00 0.00 0.00 30 1010.4
20260505012228 76 263 7.0 18.0 0.00 0.00 0.00 30 1010.4
20260505011728 77 268 7.0 15.0 0.00 0.00 0.00 30 1010.3
20260505011229 77 248 8.0 15.0 0.00 0.00 0.00 30 1010.4
20260505010730 76 228 10.0 23.0 0.00 0.00 0.00 31 1010.5
20260505010229 76 251 12.0 23.0 0.00 0.00 0.00 31 1010.7
20260505005729 76 263 12.0 25.0 0.00 0.00 0.00 30 1010.5
20260505005231 77 221 11.0 25.0 0.00 0.00 0.00 30 1010.5
20260505004732 77 239 8.0 20.0 0.00 0.00 0.00 29 1010.5
20260505004504 77 278 7.0 14.0 0.00 0.00 0.00 29 1010.5
20260505003730 78 272 6.0 14.0 0.00 0.00 0.00 29 1010.4
20260505003229 78 302 4.0 13.0 0.00 0.00 0.00 30 1010.5
20260505002728 78 332 2.0 9.0 0.00 0.00 0.00 30 1010.3
20260505002228 78 72 2.0 6.0 0.00 0.00 0.00 32 1010.6
20260505001728 78 303 3.0 7.0 0.00 0.00 0.00 31 1010.6
20260505001229 77 25 3.0 7.0 0.00 0.00 0.00 33 1010.6
20260505000729 77 63 4.0 13.0 0.00 0.00 0.00 33 1010.5
20260505000229 77 70 5.0 13.0 0.00 0.00 0.00 33 1010.5
20260504235729 78 316 4.0 12.0 0.00 0.00 0.00 32 1010.5